User: anonymous   Login
Location: Unspecified
(0.0000°N, 0.0000°E)
Time: 16:10:21
(UTC+00:00)
Language:

Cosmos 1953 - Orbit

View from above orbital plane
View from above orbital plane
View from above satellite
View from above satellite

Ground track
Ground track

The orbit data is extracted from the following two-line orbital elements,

1 19210U 88050A   18111.90819368 +.00000441 +00000-0 +28635-4 0  9997
2 19210 082.5155 094.0036 0012018 288.9608 071.0316 15.05545402603150
Epoch (UTC): 21 April 2018 21:47:47
Eccentricity: 0.0012018
inclination: 82.5155°
perigee height: 541 km
apogee height: 558 km
right ascension of ascending node: 94.0036°
argument of perigee: 288.9608°
revolutions per day: 15.05545402
mean anomaly at epoch: 71.0316°
orbit number at epoch: 60315

The dashed part of the orbit path shows where the satellite is in the earth's shadow,  

DLR